Theta_e
311 312 313 314 314 315 315 316 316 316 317 317 317 317 317 317 320 322 323 328 329 329 327 328 326 326 328 328 340 339 343 349 352 355 354 358 359 357 354 354 354 352 352 348 350
311 311 312 313 314 314 315 315 316 316 317 317 317 317 317 317 320 322 324 325 325 326 326 327 324 325 327 330 339 340 342 346 345 349 355 357 352 359 359 357 358 355 350 349 349
310 311 311 311 312 314 314 315 316 316 316 317 317 317 317 317 321 325 329 330 328 328 327 326 326 327 330 328 336 340 341 342 343 346 354 357 354 357 357 359 354 355 351 349 350
313 311 311 311 312 313 314 315 315 316 316 317 317 318 316 322 329 329 328 327 326 326 325 324 325 328 328 329 329 341 339 342 342 347 352 357 355 356 354 352 351 350 349 348 350
315 313 311 311 311 312 313 314 315 315 316 316 317 317 318 321 322 326 328 328 327 328 326 325 329 328 328 328 329 335 336 339 341 342 344 350 355 354 355 349 349 350 349 350 350
315 315 312 311 311 312 313 314 314 315 315 316 318 316 323 323 325 329 329 329 328 330 328 326 328 327 328 329 329 330 331 336 339 342 341 348 348 349 349 350 350 351 351 350 350
316 315 314 311 311 312 313 313 314 314 315 317 317 318 322 321 326 327 328 327 327 327 328 327 326 327 327 329 328 330 331 331 333 339 340 342 343 344 349 349 349 351 351 350 350
315 315 315 312 311 312 312 313 314 314 315 318 316 320 315 323 325 327 327 326 327 325 327 327 327 325 327 325 325 329 330 333 334 335 335 338 339 332 350 351 349 347 349 351 350
315 314 315 313 312 312 312 313 314 315 318 316 319 318 317 323 324 326 326 326 325 325 326 326 324 322 323 324 324 325 330 331 335 334 334 334 336 331 349 350 350 348 343 344 349
315 315 315 314 312 312 312 313 316 318 317 318 323 321 320 323 323 324 326 325 323 323 323 322 319 322 319 322 327 328 327 327 328 330 333 333 333 329 351 351 351 348 345 342 342
314 316 315 316 313 312 313 319 311 311 320 310 312 319 322 322 321 324 325 323 322 320 324 321 322 324 324 324 325 326 325 326 325 325 333 332 330 330 332 352 351 349 347 343 341
315 317 315 316 312 312 313 317 318 318 319 316 314 316 317 319 321 321 324 324 324 324 322 321 324 324 323 323 323 324 325 324 323 325 327 327 327 327 326 344 351 350 350 348 345
314 317 314 316 313 312 312 315 320 319 318 321 319 320 320 319 321 321 321 322 324 324 323 323 324 323 324 323 323 322 323 322 323 323 325 326 325 327 326 328 331 342 344 348 348
315 317 314 314 312 313 314 319 321 320 322 324 325 321 317 318 320 319 321 322 323 325 322 323 322 324 323 322 321 322 320 322 326 323 325 323 325 325 326 330 330 335 337 339 345
316 317 315 312 315 319 321 320 316 318 330 327 324 321 316 318 319 320 320 322 323 324 321 324 324 323 322 323 320 322 323 325 324 323 323 324 324 324 327 329 329 330 336 336 339
317 316 316 312 314 320 318 319 318 321 332 330 321 320 319 318 319 320 321 320 320 323 321 320 320 322 320 323 322 322 324 321 321 320 325 323 325 327 340 337 332 334 343 339 338
320 317 317 313 315 322 319 318 321 325 326 328 323 319 318 319 320 321 320 321 321 321 319 320 321 321 322 324 322 320 320 323 327 326 327 320 329 332 338 342 341 346 346 337 342
321 318 319 314 314 315 321 323 330 328 328 326 323 320 321 319 320 321 319 319 319 317 317 320 327 326 323 324 324 323 321 323 330 327 326 323 332 331 343 342 343 346 344 343 343
320 320 321 319 315 315 320 327 325 328 330 331 325 324 324 323 322 320 320 318 318 317 321 321 327 326 327 325 324 324 324 320 321 321 325 325 332 333 344 345 346 348 347 347 348
320 322 324 321 317 323 324 327 328 326 328 327 328 325 324 324 323 320 320 320 322 317 318 321 328 327 327 325 323 323 321 324 321 330 332 328 331 331 348 348 346 349 351 348 347
323 325 326 320 324 321 329 327 328 328 327 326 329 326 325 330 322 319 320 327 329 324 319 322 324 326 324 323 324 322 323 318 318 322 329 331 331 328 346 346 346 346 347 349 348
321 331 325 321 323 316 325 325 325 327 325 326 327 328 328 327 327 329 330 328 326 327 327 324 321 327 328 323 321 321 322 318 321 323 323 326 329 331 343 342 340 340 346 347 344
316 323 322 322 323 322 321 324 325 326 328 325 326 325 324 327 329 328 329 327 325 327 327 325 323 327 328 323 323 324 323 316 314 316 323 323 324 330 334 335 335 339 344 345 343
322 330 322 316 314 320 324 325 326 325 324 326 327 324 325 327 324 328 328 326 324 328 332 325 319 324 328 327 323 326 325 320 319 321 321 321 322 322 335 333 333 342 343 344 342
316 322 320 329 326 324 323 324 328 327 325 324 328 326 326 329 327 327 325 325 324 325 321 320 324 324 323 323 324 325 325 324 323 321 324 324 321 335 338 339 330 339 340 342 342
317 320 317 321 321 322 321 327 328 327 325 328 326 324 325 327 327 328 325 325 326 323 321 315 323 323 326 325 324 324 323 322 324 328 327 331 340 335 333 333 334 335 335 335 334
316 316 317 320 319 321 321 326 325 326 324 325 324 323 323 324 321 321 320 319 322 323 321 320 317 319 323 320 323 324 321 326 332 331 332 337 334 334 331 331 330 329 330 330 329
Wind_Speed
9 10 9 9 9 9 9 9 10 10 11 12 13 14 16 19 19 12 4 5 3 7 15 16 7 13 7 4 4 3 4 1 3 4 4 5 4 3 4 4 2 2 2 6 27
9 10 10 10 9 9 9 9 9 10 10 11 12 14 15 19 18 10 12 12 13 14 9 7 7 6 3 2 1 3 3 5 4 6 6 6 5 7 4 2 1 3 3 26 27
11 11 11 10 10 9 9 9 9 10 10 10 11 12 14 14 5 6 6 5 4 3 4 7 4 3 4 2 0 2 3 5 3 5 10 7 3 3 8 4 8 8 13 17 22
13 11 11 11 10 9 9 9 9 9 9 9 10 12 12 5 3 1 8 5 5 6 4 3 5 6 5 5 3 3 5 4 4 5 5 3 3 5 6 5 3 12 18 16 15
13 12 11 11 10 9 9 8 8 8 9 9 9 10 4 3 7 6 8 5 6 8 4 2 4 2 3 4 4 2 2 3 5 4 4 5 6 3 8 2 12 15 17 17 16
13 12 11 11 10 9 9 8 7 7 8 7 7 7 2 2 3 3 7 8 10 7 3 1 2 0 2 2 0 4 5 4 6 5 1 5 2 3 4 10 13 17 19 17 18
14 12 11 11 9 8 8 6 6 6 6 6 5 3 0 11 2 8 4 11 11 7 3 3 1 1 1 5 3 3 4 5 5 4 5 5 5 9 4 12 16 16 15 15 16
15 12 11 9 8 7 6 5 5 5 4 3 3 1 6 4 7 11 12 6 4 4 6 9 9 2 2 4 7 3 4 5 4 5 3 8 11 6 9 11 12 14 13 14 17
16 13 10 8 7 5 5 4 4 3 2 1 0 1 8 7 6 9 7 3 5 2 2 3 4 3 4 3 5 7 1 4 7 4 3 3 9 5 9 11 11 13 13 13 13
17 12 9 7 5 5 3 2 1 1 3 2 1 2 5 0 4 2 3 2 3 3 6 8 6 3 4 6 2 6 6 3 5 5 4 3 14 7 7 11 12 12 11 13 15
19 14 8 5 4 5 3 3 4 2 2 6 4 3 4 9 3 1 4 4 3 9 3 4 5 2 3 4 5 3 3 5 5 8 3 6 7 17 7 9 9 11 13 15 18
20 14 6 4 5 5 3 3 3 1 5 6 4 6 8 2 2 2 3 3 4 2 1 6 3 2 4 4 4 4 4 7 7 5 3 3 9 12 3 9 17 15 14 17 12
20 13 5 4 4 4 5 4 1 5 2 4 5 4 5 7 3 3 5 2 3 2 2 4 4 6 2 1 1 3 5 4 6 5 3 4 8 5 4 3 6 9 10 12 16
20 11 3 6 2 3 3 1 13 7 4 3 3 5 4 3 3 3 5 5 3 4 4 5 4 2 3 5 3 3 6 4 3 4 2 3 4 5 6 4 4 3 6 7 10
20 8 1 7 4 3 2 13 9 4 4 3 3 1 2 7 2 4 3 5 7 4 5 7 2 3 4 6 5 9 2 1 2 2 2 4 3 7 7 8 9 6 7 9 9
19 5 3 6 5 3 10 7 2 5 2 2 4 5 5 1 1 2 3 5 3 4 2 7 2 4 7 3 6 2 1 5 4 3 3 3 3 5 5 7 8 6 6 4 6
15 6 9 8 2 4 5 2 5 3 3 3 4 4 3 3 2 2 6 5 5 3 3 5 4 3 3 1 3 6 6 4 5 5 4 2 3 7 8 9 6 9 9 5 8
11 3 5 11 7 2 3 5 1 1 4 2 4 3 5 5 3 3 5 4 2 5 2 1 6 4 1 4 5 3 6 5 2 1 5 3 1 5 5 9 9 6 4 7 10
6 1 4 2 14 5 5 3 5 4 3 3 3 4 1 1 2 1 4 6 8 9 5 3 4 3 5 3 3 3 4 4 6 3 2 2 3 4 5 7 7 5 8 10 11
2 1 3 3 11 5 5 4 4 4 4 2 3 3 5 3 5 5 4 4 5 11 4 5 2 3 4 3 8 7 4 4 4 1 3 5 4 5 2 3 7 6 6 6 8
1 3 4 14 3 5 3 6 6 6 2 1 1 4 2 2 3 3 4 2 3 3 5 4 4 6 3 6 2 4 3 6 5 3 4 2 5 5 7 3 5 6 2 5 7
1 3 0 6 4 1 2 5 4 5 2 2 2 3 3 3 3 1 3 2 6 5 5 0 5 3 2 4 3 2 3 4 5 3 1 3 5 2 5 2 6 7 7 6 4
2 2 7 4 3 2 4 4 4 3 4 4 3 4 5 3 4 3 3 5 7 5 4 4 2 3 5 6 3 4 1 5 5 3 3 4 5 5 6 5 2 3 6 6 7
2 3 3 3 0 4 2 5 3 3 2 4 3 3 4 5 6 3 4 4 6 4 8 7 3 5 6 4 3 3 2 3 5 3 3 5 6 5 7 7 5 2 2 4 4
4 1 1 3 3 2 1 2 3 3 2 6 4 5 4 3 3 3 3 5 6 9 5 4 3 2 2 2 0 2 3 4 5 5 6 6 6 4 6 7 4 3 5 6 6
2 2 3 2 1 2 3 3 1 1 2 3 6 3 2 5 2 4 1 1 2 5 3 3 2 2 2 2 4 4 6 7 3 3 4 3 1 3 5 3 9 7 7 7 6
4 2 2 3 2 3 2 3 2 1 6 4 6 5 6 4 4 2 3 1 1 1 3 2 6 4 5 3 2 4 5 3 3 2 3 4 2 2 5 7 5 6 5 5 5
Wind_Direction
318 315 308 306 306 307 308 309 314 316 317 322 325 329 328 326 324 321 269 250 279 297 322 333 336 337 138 156 183 93 63 150 212 157 221 179 163 123 77 114 96 99 131 152 148
309 304 301 297 296 299 301 304 308 312 318 321 325 327 328 330 328 297 288 278 286 285 308 327 321 3 45 77 196 103 114 217 209 180 191 207 184 137 118 155 257 101 72 137 147
306 300 296 296 294 293 295 298 303 309 316 321 323 325 327 334 342 253 6 10 4 10 323 313 328 32 48 355 351 191 190 179 241 205 172 203 84 129 124 220 216 173 150 149 151
305 295 290 290 290 286 289 291 298 305 314 319 322 325 328 346 216 49 8 22 20 353 334 346 10 22 25 9 333 330 276 205 201 186 151 185 131 155 184 230 183 153 157 154 165
310 295 285 284 285 280 280 283 292 301 311 319 324 330 346 5 254 320 338 8 22 5 0 21 51 63 0 296 320 223 274 234 247 203 181 136 226 196 228 237 121 140 160 168 173
316 303 288 280 281 273 274 279 288 298 310 316 326 334 21 282 281 20 37 354 341 348 334 360 11 102 248 284 257 306 291 267 255 218 212 173 207 168 245 125 142 156 176 175 181
321 309 296 282 273 268 269 273 284 294 306 313 326 348 58 234 191 312 304 312 308 280 321 293 162 36 308 316 344 293 307 325 253 222 213 137 283 227 171 151 155 174 180 183 188
325 313 299 282 267 264 263 265 275 286 295 310 316 8 246 267 261 268 278 293 308 321 264 296 286 224 38 328 1 34 46 5 286 160 248 126 260 262 162 160 171 180 185 192 194
330 315 301 278 261 253 248 255 268 268 254 270 115 100 269 300 264 260 251 256 321 32 327 244 103 79 16 44 15 8 319 310 314 223 102 171 264 288 166 175 179 191 191 199 206
337 322 301 274 249 225 222 235 202 201 149 131 277 357 275 86 292 224 198 220 59 356 22 36 43 55 40 52 330 319 338 314 258 287 167 206 271 256 184 186 191 194 193 203 207
344 333 303 267 222 194 153 139 34 1 206 190 197 250 299 320 282 245 158 99 64 57 39 8 44 241 266 208 216 246 213 252 258 267 189 245 267 276 195 212 200 195 196 205 213
348 342 323 226 191 173 156 151 197 229 309 217 246 286 276 257 310 286 136 121 83 107 34 14 274 268 236 213 207 214 250 278 294 254 123 312 270 266 211 220 215 204 203 210 209
350 343 332 163 160 168 207 219 25 336 109 298 190 207 233 148 214 230 117 114 104 111 127 162 241 309 353 358 154 206 197 247 232 338 14 355 307 318 321 293 245 226 219 215 207
351 339 326 141 155 163 238 272 308 176 70 262 252 273 141 189 313 211 166 123 37 225 171 252 285 260 328 291 154 300 209 244 275 56 278 48 275 307 337 15 31 181 218 241 229
349 332 248 156 127 178 143 323 127 119 83 160 203 129 127 145 160 220 168 62 168 194 103 249 241 295 315 239 165 230 359 73 33 114 62 1 66 279 353 356 346 348 202 208 202
344 305 189 186 233 192 328 146 137 40 63 183 134 154 115 6 29 78 98 67 146 162 298 241 272 227 219 238 185 72 64 45 59 72 33 302 109 308 339 298 299 326 330 319 170
339 250 192 182 199 139 34 86 38 113 342 186 176 160 130 151 241 163 155 172 169 106 305 318 248 267 224 250 29 75 52 351 6 10 229 352 68 243 296 317 305 318 309 65 132
347 228 222 215 214 325 121 49 110 243 244 28 112 91 155 158 230 142 109 171 177 91 95 108 346 16 20 208 150 87 129 145 220 261 277 302 17 271 319 321 315 323 310 71 79
355 341 263 229 215 266 76 77 224 207 300 352 85 93 240 204 139 155 165 185 205 168 180 160 277 313 32 6 100 163 55 165 103 8 44 269 309 323 349 337 341 22 70 85 99
344 320 276 173 145 131 75 245 254 212 330 2 162 135 172 223 151 156 186 195 222 187 158 211 320 8 298 22 30 102 158 44 14 170 289 305 269 228 201 283 319 30 73 105 144
113 68 359 145 98 52 158 235 278 261 239 216 195 116 164 137 147 191 202 24 344 32 142 132 118 293 26 27 324 358 24 61 111 121 173 226 270 213 185 245 327 337 51 169 190
95 69 54 135 55 23 176 209 276 286 255 269 104 87 106 78 73 176 141 294 328 154 129 83 132 114 125 296 289 122 129 105 112 261 44 141 279 318 166 336 330 315 343 322 233
79 113 147 354 142 264 284 276 252 321 323 6 39 61 54 70 96 58 9 301 356 71 133 183 22 53 10 354 350 68 124 116 112 98 201 145 263 68 30 343 318 301 349 346 329
89 92 351 51 111 137 346 286 299 306 43 53 46 56 83 53 20 90 19 335 1 68 63 90 106 148 194 212 160 171 204 94 113 113 191 231 278 344 349 283 228 130 41 339 332
28 210 217 204 285 151 117 292 309 10 19 27 51 31 135 96 35 47 358 351 7 358 47 82 135 159 208 219 238 234 223 184 182 186 168 242 213 304 317 274 236 104 33 0 3
81 68 0 117 357 146 135 211 209 130 38 15 95 20 122 126 172 172 135 11 261 350 54 17 187 135 289 193 196 254 237 248 245 121 278 271 197 328 340 65 63 50 50 24 1
23 35 108 310 62 102 230 307 343 130 39 90 138 91 66 152 182 256 222 246 299 188 165 124 137 119 240 15 5 306 254 199 148 98 193 201 182 33 28 44 36 36 39 29 348